Volver al catálogo

SL-8 DEB *

ActivoLEO
NORAD 3745·DEBRIS·🇷🇺 Russia

Lanzado Mar 15, 1965 desde Baikonur Cosmodrome

Loading…

Próximos Pases (próximas 24 horas)

TLE

ActualizadoSource: Space-Track

Época: Sep 14, 2026, 03:03 UTC

1 03745U 65020ET  26257.12771990 -.00000017  00000-0  48859-3 0  9996
2 03745  56.0163 154.6720 0169921  77.0421  67.4060 12.51041748652117

Sigue SL-8 DEB * en tiempo real con AllMySat

Download on the App Store